Location: Newark
(45.8667°N, 9.7333°E)
Time: 14:59:56
(UTC+00:00)

Transit 4A - Pass Details

Date: 25 January 2020
Orbit: 872 x 973 km, 66.8° (Epoch: 22 February)

Event Time Altitude Azimuth Distance (km) Brightness Sun altitude
Rises 07:51:04 0° 257° (WSW) 3,530 10.5 7.9°
Reaches altitude 10° 07:54:10 10° 272° (W) 2,574 9.8 8.4°
Maximum altitude 07:58:45 23° 323° (NW) 1,818 9.0 9.0°
Drops below altitude 10° 08:03:19 10° 14° (NNE) 2,543 10.0 9.6°
Sets 08:06:22 0° 30° (NNE) 3,477 10.8 10.0°
